Wind_Speed
31 31 31 31 31 32 34 34 32 30 29 28 28 28 27 26 26 27 26 25 25 23 21 21 20 17 18 20 20 20 18 17 17 18 18 19 21 21 22 22 21 21 22 24 26 26 26 26 26 26 26 26 25 26 27 27 27 26 25 25 26 27 27 26 26 27 27 27 28 29 29 30 31 31 31 31 31 31 30 31 31 31 31 31 32 32
33 33 32 32 33 35 35 34 32 31 30 30 30 29 29 28 28 28 28 27 27 26 23 24 23 19 19 21 21 22 21 19 19 20 20 21 23 23 23 23 23 23 24 26 27 28 29 29 29 29 28 27 26 27 28 28 28 28 27 27 27 28 28 28 28 28 28 28 29 29 29 30 31 31 31 31 32 32 32 32 32 32 33 32 33 34
35 34 33 33 35 36 36 34 33 32 32 32 31 31 30 30 30 31 30 30 30 28 25 26 26 22 21 22 21 22 23 21 21 22 22 23 24 24 24 24 24 25 26 27 28 29 29 30 31 31 30 29 28 28 28 29 29 29 29 28 29 29 29 29 29 29 29 29 30 30 30 30 30 31 31 31 32 32 32 33 33 33 34 34 34 35
37 36 35 35 36 37 37 35 34 34 33 33 33 32 32 32 32 33 33 32 31 30 28 28 30 26 23 23 21 22 24 22 23 24 23 24 24 24 25 24 25 26 27 28 29 30 30 31 32 33 33 31 30 29 29 29 30 30 30 29 29 29 29 29 29 30 30 30 30 30 30 30 30 30 31 31 31 31 31 32 33 33 34 34 34 34
40 38 37 37 37 38 37 36 35 35 35 35 35 34 34 34 35 35 34 34 33 32 30 30 33 30 24 23 22 22 24 23 24 25 24 25 26 24 24 25 26 27 27 28 30 31 32 32 33 33 33 33 32 30 29 29 30 31 30 29 29 29 29 30 30 30 30 30 31 31 31 31 30 30 30 31 31 31 31 32 32 32 33 33 34 34
42 40 39 39 38 38 38 37 37 37 37 37 37 36 37 37 37 36 35 35 34 33 32 32 37 35 27 23 22 22 24 24 25 26 25 26 26 25 25 25 27 28 28 29 31 32 33 33 33 33 32 32 31 29 28 29 30 30 30 30 29 28 29 29 29 30 30 30 30 31 31 31 31 31 31 31 32 32 32 32 32 33 33 34 34 35
44 42 41 40 39 39 39 39 39 39 39 39 39 39 40 39 38 38 37 36 36 35 34 34 39 40 32 25 22 23 25 24 25 26 26 27 27 27 27 27 28 28 29 30 31 33 34 33 33 33 32 31 29 28 28 28 28 29 29 29 28 27 28 28 28 29 29 29 30 30 31 31 31 32 32 32 32 33 33 33 33 34 35 35 36 36
44 44 43 42 41 41 41 41 41 42 42 42 42 42 41 40 40 39 38 38 38 37 37 37 39 43 40 29 23 25 26 25 25 27 28 29 29 28 28 28 29 29 30 30 31 32 33 33 33 33 32 30 28 27 27 27 28 28 28 28 28 27 28 28 28 29 29 29 30 30 31 31 31 32 33 33 33 33 34 34 34 35 36 37 38 38
45 45 45 44 44 44 43 43 44 44 45 45 44 44 42 42 41 41 40 40 40 39 40 39 38 43 43 33 27 27 27 26 26 28 30 30 29 29 30 30 30 30 30 31 32 33 33 32 32 33 32 30 29 27 27 27 28 28 28 28 28 28 28 28 29 30 30 30 31 31 31 31 32 33 34 34 34 34 34 35 35 35 37 38 39 40
47 47 48 47 47 46 45 46 46 46 46 46 45 45 44 44 43 43 43 42 41 41 42 41 38 41 43 36 31 30 28 26 26 27 29 30 30 31 31 31 31 31 32 32 32 33 33 32 31 32 31 30 29 28 28 28 28 28 28 28 28 28 28 29 29 29 30 30 30 30 30 31 31 32 33 34 34 34 34 35 35 36 37 38 40 41
49 49 49 49 49 48 48 48 47 47 47 46 46 46 46 46 46 45 44 43 43 44 45 43 39 40 40 34 29 29 28 27 26 28 31 32 32 33 32 32 32 32 33 33 32 33 33 31 31 31 31 31 30 29 29 29 29 29 28 28 28 28 28 29 30 30 30 31 31 31 31 31 31 31 32 33 33 33 34 34 35 36 37 38 39 41
51 50 50 50 50 50 49 49 48 48 48 48 48 49 48 48 47 46 45 45 46 47 46 44 41 41 40 34 30 31 32 31 30 31 33 33 34 35 34 34 33 33 34 34 33 33 33 31 30 31 31 31 31 30 30 30 31 31 30 29 29 29 29 29 30 30 30 31 31 32 31 31 32 32 33 33 34 34 34 35 36 37 38 38 39 41
51 50 50 49 50 51 51 51 51 51 51 51 51 50 48 47 47 48 48 48 49 48 46 45 44 44 43 38 37 39 38 36 35 35 35 35 37 38 37 36 35 35 36 36 34 33 33 32 30 31 31 31 31 30 30 31 31 31 31 30 30 30 30 30 31 31 31 31 31 31 31 31 32 32 33 34 34 35 36 37 38 39 39 40 41 42
52 52 52 52 52 52 52 53 53 52 51 50 49 48 48 48 49 51 51 51 51 48 47 46 46 47 44 40 40 41 40 38 36 36 37 38 40 42 41 39 38 38 39 39 37 36 35 33 32 31 31 32 31 31 31 31 32 32 31 31 31 31 32 32 32 32 32 32 32 32 32 32 32 33 34 35 35 36 37 38 39 39 40 40 41 43
53 54 53 53 53 52 52 52 51 50 49 50 50 50 51 51 52 53 53 52 51 49 48 48 49 48 45 42 41 41 41 41 39 37 39 40 41 43 45 43 41 42 43 42 40 39 37 35 33 33 32 32 32 32 32 32 32 32 31 31 32 32 33 33 34 33 33 33 33 32 32 33 33 33 34 35 35 36 37 38 38 38 39 40 42 43
53 54 53 52 52 51 50 50 49 49 51 52 52 53 54 53 52 52 53 52 51 52 52 51 52 50 46 45 44 43 43 43 42 40 40 41 40 42 45 46 45 45 46 46 43 41 38 36 34 33 33 33 33 33 33 33 33 32 32 32 32 33 33 33 34 34 34 33 33 33 33 33 34 34 34 34 35 36 37 37 38 38 39 40 41 42
52 54 52 51 51 50 49 49 48 49 50 51 53 54 54 52 51 51 52 53 53 56 56 55 54 51 48 48 45 44 45 45 45 43 42 42 43 43 43 46 48 49 50 49 47 44 40 37 35 34 33 34 34 35 34 34 33 32 33 33 33 33 33 33 34 34 34 34 34 34 34 34 34 34 34 34 35 36 36 37 37 38 39 39 40 41
51 52 53 52 51 51 50 49 49 49 50 52 54 54 53 53 53 53 54 55 56 59 59 57 55 52 51 50 45 43 46 47 47 47 46 46 47 46 44 45 48 51 53 52 50 48 44 40 37 34 33 34 35 36 35 35 34 33 34 34 34 34 33 33 34 34 35 35 35 35 35 35 35 34 34 34 35 35 36 36 36 37 37 39 40 40
50 51 52 53 52 51 50 51 52 52 53 54 55 54 53 54 55 55 56 57 57 60 60 58 58 56 54 51 46 46 48 50 50 50 50 50 50 49 47 47 48 50 53 54 52 50 47 43 39 35 34 35 35 35 35 35 34 34 35 35 35 36 35 35 35 35 35 35 36 36 36 35 35 35 35 36 36 36 35 35 35 36 38 40 40 40
49 50 52 53 52 52 52 53 55 55 55 55 54 53 53 54 55 55 56 57 57 59 60 60 61 59 55 51 51 51 51 52 53 52 52 53 53 52 51 51 50 50 52 54 53 51 50 47 42 38 37 36 35 35 34 34 34 34 35 36 37 37 37 36 36 36 36 36 36 36 35 36 36 37 38 38 38 37 36 36 37 38 39 40 41 41
51 52 53 54 55 55 55 55 55 54 53 52 51 52 53 53 55 56 57 58 57 59 61 62 64 62 54 52 55 56 55 54 54 54 54 54 54 53 54 55 54 52 53 55 54 52 51 49 45 41 39 38 37 36 35 34 34 34 36 37 37 37 36 36 36 35 36 36 36 36 36 37 37 37 38 38 38 38 38 39 40 41 41 41 41 42
53 54 55 57 58 57 55 53 52 52 52 52 52 53 54 54 55 57 59 61 60 60 61 61 65 63 54 53 57 57 56 55 55 55 55 55 55 55 56 59 57 55 55 55 56 54 52 50 46 42 41 41 40 38 37 36 36 36 36 37 36 36 35 35 36 36 36 36 35 36 36 36 37 37 37 38 38 39 40 41 42 43 42 42 42 42
54 56 56 57 58 57 56 54 54 54 54 54 55 56 56 58 59 60 62 62 61 61 61 62 67 64 53 53 56 56 56 56 56 56 55 56 57 57 58 60 60 60 59 58 57 56 55 51 46 42 42 43 43 41 39 38 38 38 37 37 37 37 37 36 36 36 35 35 36 36 37 38 38 38 39 39 40 41 42 43 43 44 44 44 44 43
57 59 61 60 59 59 59 58 58 58 58 59 59 59 59 60 60 60 60 60 60 62 61 62 67 64 56 55 55 55 59 60 57 55 55 57 59 61 61 60 60 63 63 61 57 56 55 51 46 44 44 45 45 44 40 39 39 39 39 38 39 39 38 37 36 35 35 36 38 38 39 39 39 40 40 41 42 42 43 43 44 44 45 45 45 45
55 58 60 61 63 63 63 62 61 61 62 62 61 59 59 58 57 58 58 58 60 61 60 62 67 65 59 57 56 56 61 61 58 57 58 58 59 63 65 62 61 62 63 62 60 56 53 49 46 46 47 47 48 46 42 41 41 41 42 41 40 40 39 38 37 37 37 38 39 39 39 39 40 41 41 42 43 43 43 43 44 45 45 46 46 46
49 52 54 57 62 66 67 65 64 62 61 61 59 57 57 56 57 58 58 60 62 60 60 64 67 63 59 59 59 58 59 60 60 59 59 59 59 62 68 67 63 61 61 62 62 57 51 48 47 48 48 49 49 47 44 43 43 43 45 44 41 40 40 40 39 39 39 39 39 39 40 40 41 42 43 43 43 43 43 44 44 45 46 46 47 47
45 48 51 54 58 63 66 64 63 62 61 61 60 59 58 58 59 59 60 63 63 62 64 67 65 63 61 59 60 59 58 60 62 61 61 62 61 61 67 70 66 61 60 61 61 56 51 50 50 51 51 50 49 46 45 45 44 43 44 44 42 41 42 42 42 41 40 40 40 41 41 42 43 44 44 44 44 44 44 44 45 45 46 46 47 47
48 48 47 48 49 51 53 54 54 56 58 59 60 60 60 60 60 61 64 66 65 66 70 67 63 65 65 61 60 60 60 61 63 63 64 66 65 62 64 67 66 62 60 59 57 54 53 53 54 54 53 51 49 47 47 48 47 45 44 43 43 43 43 44 44 43 42 42 43 43 43 44 44 44 45 45 45 45 45 45 45 46 46 47 47 47
53 52 48 47 47 45 45 46 47 49 50 52 53 54 55 56 57 60 65 67 66 69 72 67 65 69 68 64 62 61 62 63 63 64 65 65 63 58 56 59 61 60 58 56 56 55 55 57 56 55 53 51 50 50 50 50 49 47 45 44 44 43 44 44 45 45 45 44 45 45 45 46 45 45 45 45 45 45 45 46 46 47 47 47 48 49
56 56 52 51 52 48 46 46 47 48 49 50 50 50 50 51 52 56 61 63 63 64 66 66 68 71 69 66 63 60 59 59 58 57 57 56 54 51 52 55 56 56 54 53 55 56 57 58 57 54 52 51 51 52 50 49 46 43 43 43 43 43 43 44 45 46 46 46 46 47 47 47 46 46 46 45 45 46 46 46 47 47 48 48 49 50
55 55 53 54 57 54 50 49 50 51 51 52 52 51 50 50 52 54 56 57 56 58 59 60 63 67 66 60 54 51 51 51 51 51 51 50 50 51 53 55 56 56 54 53 54 56 57 57 56 53 52 52 53 53 51 48 43 40 40 42 43 43 44 44 45 46 47 48 47 47 47 46 46 46 46 45 45 46 46 47 47 48 49 49 51 51
56 55 54 55 59 57 52 50 53 53 54 56 55 53 53 53 53 54 53 52 53 55 56 55 58 61 57 50 46 46 48 49 50 50 49 48 49 51 54 56 57 57 56 55 56 57 56 55 54 53 54 55 55 54 52 49 44 42 42 43 44 45 45 46 46 47 48 47 47 46 45 45 46 46 46 46 46 47 47 47 48 49 49 50 50 50
58 58 58 59 61 59 53 52 55 57 60 62 56 52 53 53 52 53 52 52 53 55 56 58 59 56 50 47 47 47 47 48 48 47 48 49 52 54 55 56 57 57 57 57 57 57 55 54 55 56 56 57 57 55 53 50 47 46 46 46 47 47 47 47 47 47 47 47 46 45 44 45 45 46 47 47 47 48 47 47 48 48 48 48 48 48
59 60 60 60 62 61 55 54 57 62 66 64 53 47 50 52 53 55 55 54 54 56 58 59 57 51 46 45 45 44 45 47 47 47 49 52 55 56 56 57 58 58 57 56 55 55 55 55 57 59 59 58 58 56 53 51 50 50 49 48 48 48 48 48 48 47 47 47 46 46 46 46 46 46 47 48 48 48 48 47 47 46 46 47 48 49
62 63 62 62 63 61 56 56 59 62 62 58 52 51 54 55 55 56 57 55 53 53 56 55 50 46 43 42 41 42 45 47 48 49 50 52 54 55 56 57 57 56 54 54 54 55 56 58 59 60 60 59 57 56 54 53 52 52 51 50 49 49 49 49 48 48 48 48 48 48 48 48 47 47 48 49 49 49 48 47 46 46 47 48 50 51
61 62 63 64 65 64 62 64 66 64 59 55 53 52 53 54 54 56 57 54 49 48 51 50 46 44 43 42 41 43 48 49 50 49 49 50 52 53 53 53 52 52 53 53 55 56 57 58 58 58 58 57 56 55 55 54 53 52 51 51 50 50 49 49 49 49 50 50 51 51 50 50 49 49 49 49 49 49 49 48 48 48 49 50 52 54
65 63 62 61 61 62 64 67 69 67 65 63 58 51 49 50 52 54 57 54 48 47 50 49 47 46 45 44 43 47 52 54 53 49 46 49 52 52 52 52 51 52 53 54 55 55 55 56 55 55 55 55 55 55 54 53 52 52 52 52 52 51 51 51 51 51 51 52 51 52 51 51 51 50 50 50 50 50 50 49 50 51 52 53 55 56
74 72 68 66 64 62 62 64 66 68 69 67 61 55 51 51 52 55 60 60 54 50 51 51 50 48 47 46 47 50 54 57 55 49 45 48 51 52 53 54 54 54 55 54 54 54 53 54 54 54 55 55 55 54 53 53 52 52 53 53 53 52 52 52 52 51 51 51 51 51 51 51 51 51 51 51 51 51 52 52 53 54 55 56 57 56
79 78 76 75 74 71 70 71 71 71 69 65 61 57 56 57 57 59 64 64 56 50 51 52 50 48 46 46 48 50 52 56 56 49 46 49 52 53 56 57 57 57 56 55 55 55 54 54 54 55 55 55 54 54 53 53 53 53 53 53 53 53 53 52 52 52 51 51 52 52 52 52 53 53 53 53 54 54 55 55 56 57 58 58 56 54
79 80 80 82 82 80 79 79 79 77 73 65 61 60 60 62 63 66 71 68 57 50 49 48 48 48 47 48 50 50 51 54 54 49 48 51 52 53 55 56 57 58 57 57 56 56 55 55 55 55 55 54 54 54 54 54 54 54 54 54 55 55 54 54 53 53 53 53 53 54 55 56 56 57 57 57 57 57 58 58 59 60 59 58 56 54
72 75 77 80 82 82 83 83 84 83 79 71 66 64 64 65 69 74 74 68 59 54 51 52 55 57 56 56 57 56 53 52 51 49 48 49 50 52 53 54 54 56 56 56 56 56 56 56 55 55 55 55 56 56 56 56 56 56 56 56 56 56 55 55 55 55 55 55 56 57 58 59 60 60 60 60 60 60 60 60 60 60 59 57 55 55
62 65 69 72 75 77 80 81 83 84 82 76 71 70 72 75 77 77 72 66 61 58 57 58 62 64 64 64 64 61 56 52 50 49 47 47 48 50 51 53 54 54 55 56 56 56 56 56 56 57 58 58 58 58 58 58 58 58 57 57 57 57 57 57 57 57 57 57 59 60 62 63 63 63 62 62 61 61 60 60 59 58 57 56 56 56
58 57 59 62 64 67 70 72 74 76 76 74 71 73 79 82 81 77 72 68 66 63 61 63 65 67 68 68 68 66 63 59 57 55 52 50 49 50 51 52 53 55 56 56 57 57 57 57 58 58 58 58 58 58 58 58 58 58 58 58 59 59 59 59 59 59 60 61 62 64 64 65 65 64 64 63 61 60 59 59 58 57 57 57 58 58
61 58 57 56 56 59 62 65 66 66 65 64 66 70 74 77 76 75 75 74 72 69 67 67 67 68 69 70 71 71 70 70 70 68 65 61 57 54 53 54 54 55 56 57 57 57 57 58 58 58 58 58 58 58 59 59 59 60 60 61 62 62 62 62 63 63 65 65 65 66 66 66 65 65 64 62 61 60 59 58 57 57 57 58 59 60
62 60 60 61 59 58 58 58 58 57 55 55 57 61 65 67 68 69 71 73 73 74 74 73 72 72 72 72 72 71 70 71 71 71 70 70 68 64 61 60 59 59 60 61 61 60 60 60 60 60 60 60 60 60 60 61 61 62 63 64 65 66 66 66 67 67 67 67 67 66 66 65 65 64 62 61 60 59 59 58 57 57 58 59 60 61
65 59 58 60 60 59 60 59 56 53 51 49 49 52 56 58 60 61 62 64 66 69 72 75 76 77 77 76 74 71 69 68 67 66 66 67 70 71 70 68 67 65 64 63 63 63 63 62 62 62 62 63 63 63 63 64 65 67 69 69 70 70 69 69 69 68 67 67 67 66 65 64 63 62 61 60 59 59 58 58 58 58 59 59 60 60
76 70 66 62 58 58 61 60 58 57 57 53 50 51 51 50 50 51 52 56 59 62 65 68 72 76 79 79 78 76 75 73 72 70 68 67 67 69 70 70 69 67 64 62 63 64 65 66 67 68 68 68 67 68 69 70 71 71 70 70 70 70 69 68 68 67 67 67 66 65 64 63 62 61 60 59 58 58 57 57 57 57 58 58 59 60
81 81 80 75 71 68 67 63 58 60 61 57 52 52 52 50 49 49 50 51 54 55 57 60 64 68 71 73 74 75 75 75 75 73 72 69 67 65 64 65 65 65 65 66 66 67 68 69 70 70 70 70 70 70 70 70 69 68 68 68 68 68 67 66 66 67 67 66 66 65 64 62 61 60 58 57 56 55 55 56 56 57 59 60 62 63
82 84 86 85 83 81 78 74 68 65 64 61 55 52 51 50 50 51 51 49 47 47 48 51 55 59 61 62 63 64 65 66 67 68 68 68 67 65 65 66 67 68 68 67 66 66 67 68 69 70 70 70 69 68 67 66 65 65 64 64 63 63 64 65 66 66 66 65 64 63 61 59 57 56 55 54 54 55 55 57 58 60 62 64 66 67
81 82 84 86 87 86 82 79 76 71 68 67 63 60 58 57 56 53 50 47 44 42 42 42 45 48 50 51 51 53 54 54 56 58 60 62 64 65 66 67 68 68 67 66 66 67 68 68 68 68 67 66 65 64 64 63 62 61 60 61 62 63 63 64 63 62 61 59 57 56 55 54 53 53 53 54 55 57 58 60 62 64 65 67 67 67
78 79 79 82 85 86 85 83 82 80 77 73 69 68 69 69 68 66 61 58 55 52 48 45 43 43 44 46 48 51 54 56 57 57 57 58 59 60 61 61 62 63 64 65 65 65 64 63 62 62 61 61 60 60 60 60 60 60 60 61 60 58 56 55 54 53 52 52 51 51 52 52 53 54 55 56 58 60 61 63 64 65 65 65 65 64
Wind_Direction
233 234 234 234 232 231 230 229 229 230 231 232 233 234 234 235 238 241 243 245 247 249 251 254 253 251 258 264 269 273 275 276 278 281 284 284 285 287 290 293 296 299 300 299 301 303 304 305 305 303 300 297 294 290 287 285 283 282 282 281 279 277 275 272 270 269 270 272 273 275 276 276 277 277 276 276 276 276 276 276 277 277 277 276 275 276
233 233 233 232 231 231 231 231 231 231 232 234 234 235 236 237 240 244 246 248 251 252 253 256 256 253 256 262 268 275 279 280 280 281 281 282 284 287 291 294 297 299 299 299 301 303 305 306 305 303 300 296 292 287 285 285 283 282 280 279 277 276 274 272 270 269 269 269 271 272 274 276 277 278 277 276 276 276 276 276 276 276 276 276 275 275
233 233 233 232 233 233 233 233 233 234 235 236 237 237 238 239 242 245 248 250 254 256 256 258 260 257 257 261 267 274 278 281 282 281 282 283 285 288 291 295 298 298 298 299 301 302 304 304 304 303 300 296 291 287 283 282 281 280 278 276 276 275 276 275 273 271 271 271 271 272 273 274 276 277 277 276 275 275 275 275 275 275 276 276 276 276
233 233 232 233 234 235 235 235 235 237 237 239 239 240 241 241 243 246 249 252 256 258 259 260 262 259 258 261 265 271 276 279 280 281 283 284 286 289 293 296 297 297 298 300 300 301 301 302 302 300 299 297 293 287 283 280 279 278 278 277 277 277 277 276 275 273 273 273 272 273 274 275 276 276 276 276 276 275 274 274 274 275 276 277 277 277
233 233 233 233 234 236 237 237 238 239 240 241 242 242 243 243 245 247 251 255 257 260 262 263 264 260 257 261 264 268 273 276 277 280 284 286 287 290 294 297 298 298 299 299 299 299 300 300 299 298 297 296 293 289 285 281 279 279 279 278 278 277 277 276 275 274 273 273 274 275 276 277 277 276 276 276 276 275 275 274 274 275 275 276 276 276
234 234 234 235 235 237 239 240 240 241 241 242 243 244 244 245 247 249 252 256 258 261 263 266 267 265 259 259 263 267 271 274 277 280 284 285 288 293 296 298 298 298 299 298 298 298 299 299 299 298 296 295 293 290 287 283 281 280 280 280 280 279 278 277 276 275 274 274 274 275 276 277 278 278 277 276 276 277 277 276 275 275 275 274 274 274
235 236 236 236 237 238 240 241 241 242 242 243 244 244 245 247 249 252 254 256 258 261 263 265 269 271 266 260 262 266 269 272 276 281 284 285 289 295 297 298 298 299 299 298 298 298 299 300 299 298 296 295 293 290 288 287 285 283 282 282 281 280 278 277 276 275 274 273 273 274 276 278 280 280 279 278 278 278 278 277 276 276 277 276 275 274
237 238 239 238 238 239 240 241 242 242 242 242 243 245 247 249 251 253 255 256 258 260 262 263 267 273 271 265 262 264 268 272 275 279 283 286 291 295 296 297 298 299 299 299 299 298 299 300 299 297 297 295 292 289 288 288 287 285 283 281 280 278 276 275 274 274 274 274 275 275 276 278 279 279 279 279 278 278 277 277 277 277 278 278 277 277
238 239 239 239 238 238 238 240 240 241 242 243 244 246 248 250 252 253 255 256 258 260 262 263 266 272 273 271 266 263 265 270 274 278 282 286 290 292 294 295 297 299 300 299 299 298 298 299 298 296 295 293 290 288 287 287 288 288 285 282 280 279 278 277 277 276 277 277 276 276 277 277 277 277 278 279 278 278 277 277 277 277 277 277 278 279
237 238 238 239 239 239 239 240 241 242 243 244 246 247 249 250 251 252 254 255 258 260 261 262 265 270 273 273 269 266 266 269 273 277 280 283 287 289 291 293 295 298 299 298 297 297 298 298 296 295 293 291 289 288 287 286 287 288 287 285 282 281 280 279 279 279 279 279 279 278 278 277 276 276 277 277 277 277 277 277 277 277 277 278 279 280
237 238 238 239 239 240 240 241 242 243 245 246 247 248 249 249 250 251 253 255 258 259 261 263 265 269 271 270 269 269 271 273 275 276 279 283 285 286 288 290 294 298 298 298 297 296 297 297 295 293 290 288 288 288 287 286 286 287 286 285 283 282 281 280 279 279 279 279 279 278 278 277 277 276 276 276 277 277 277 277 277 277 277 278 279 280
238 239 239 240 240 241 241 242 244 244 245 246 247 248 248 249 249 251 253 255 256 258 261 263 264 265 266 268 274 276 277 278 279 279 281 284 284 284 287 290 294 298 298 299 300 298 298 298 295 292 289 286 286 287 287 287 287 287 287 286 285 283 282 282 281 281 280 279 279 278 278 278 277 277 277 277 277 277 277 277 278 278 278 278 278 279
240 241 241 241 241 242 242 243 243 244 244 245 246 248 249 251 252 252 253 254 255 258 260 262 264 264 264 267 273 276 278 281 282 283 285 286 286 288 290 293 296 299 299 301 304 302 300 299 296 292 288 285 284 285 286 287 287 287 287 288 287 286 284 284 283 283 282 281 280 280 279 279 279 279 279 279 279 279 279 279 280 280 279 279 278 278
240 240 241 241 242 242 243 243 244 245 246 247 248 249 251 251 252 252 253 254 255 258 259 261 263 263 264 266 270 274 277 280 281 284 287 288 290 293 293 296 299 301 301 303 306 306 302 299 296 293 288 284 282 282 283 284 285 285 286 286 286 286 286 285 285 285 284 282 281 281 281 281 282 282 281 281 281 281 281 281 281 281 281 280 280 279
240 240 240 242 243 243 243 244 245 246 247 247 247 248 248 249 252 254 255 256 257 258 258 258 259 261 264 268 270 273 276 278 280 283 284 286 289 292 294 297 300 301 301 302 306 308 305 299 295 291 287 282 279 279 279 281 282 283 284 284 285 285 286 285 285 285 284 283 281 281 282 283 283 283 283 283 283 282 282 282 282 283 283 283 282 282
244 244 243 245 246 246 246 246 246 247 247 247 247 248 249 251 253 256 256 257 259 258 257 257 258 260 264 267 270 273 275 278 280 280 280 282 285 288 292 297 300 300 301 303 307 308 305 300 295 290 285 281 278 277 277 278 280 280 281 283 284 285 284 283 283 282 282 281 280 280 280 281 282 283 283 284 284 284 284 283 284 284 284 284 284 283
247 247 245 246 248 247 248 248 248 248 248 249 248 249 251 252 253 255 256 257 257 258 257 258 259 261 264 266 268 272 275 277 278 279 279 281 284 285 289 294 298 299 301 304 307 306 304 301 296 289 282 279 277 277 276 277 278 278 280 282 283 283 283 281 280 280 279 279 278 277 278 279 280 281 282 283 284 284 284 284 285 284 284 285 284 284
247 247 246 246 247 247 247 248 247 247 248 248 249 250 250 251 251 252 253 254 254 256 258 259 261 263 264 265 267 269 272 274 276 278 280 282 283 284 287 290 293 297 299 302 304 304 304 302 297 289 281 277 275 275 275 276 277 278 279 280 281 282 282 282 281 280 279 278 277 277 278 279 279 280 281 282 282 283 283 283 284 284 285 285 285 285
245 246 245 245 246 246 245 246 246 247 248 249 250 249 248 249 250 251 252 254 255 258 259 260 261 262 262 265 268 269 270 273 275 277 280 281 282 284 287 289 290 293 296 298 300 301 303 302 297 287 278 274 273 272 273 273 274 276 277 278 279 280 282 283 282 281 279 279 279 280 281 281 281 281 281 282 281 281 282 282 283 285 286 286 285 285
243 244 243 242 244 244 244 244 246 248 249 249 249 248 248 249 251 251 252 254 256 257 259 259 259 260 263 266 269 269 269 272 274 276 278 280 283 286 288 289 289 290 292 294 296 299 300 299 295 286 277 273 272 270 270 271 271 272 274 275 276 279 282 282 281 281 281 281 281 281 281 281 282 282 283 283 282 281 281 281 283 285 285 285 285 285
240 241 242 241 241 242 243 244 246 247 247 247 247 247 248 249 251 252 252 253 254 256 257 258 258 259 263 265 267 268 270 272 274 276 278 280 284 287 288 287 288 290 291 292 293 296 297 296 293 286 279 275 274 272 270 271 272 272 272 274 275 278 279 280 280 280 280 280 280 280 281 281 282 283 283 283 281 280 280 281 283 284 284 284 284 285
243 243 244 243 242 243 244 245 245 245 245 246 246 246 247 248 249 250 251 251 252 253 255 256 257 260 263 265 266 269 271 272 274 276 279 282 284 285 285 286 289 290 290 290 292 294 295 294 291 286 281 278 276 275 273 271 272 273 273 274 275 276 277 279 280 280 279 279 280 280 281 281 282 283 282 281 279 279 279 280 282 284 284 284 284 284
245 245 245 245 245 245 245 244 243 243 244 244 245 245 247 247 248 248 250 251 251 251 253 255 257 261 265 266 266 270 271 272 273 275 278 281 282 283 284 286 289 290 289 289 291 293 293 292 288 284 281 279 277 276 276 273 272 272 273 273 273 275 277 278 278 278 278 278 279 281 282 282 282 282 282 281 280 280 280 282 283 283 283 283 284 285
244 244 245 245 245 245 244 243 243 243 243 243 244 245 246 247 248 249 250 252 252 252 254 256 258 262 265 265 267 270 271 271 273 275 278 279 280 282 283 285 288 289 289 289 291 292 291 290 287 283 281 279 277 277 277 276 275 273 273 272 273 275 276 276 276 275 276 278 279 281 282 282 283 283 282 282 281 281 281 281 281 282 282 283 284 285
243 244 245 245 245 245 245 245 245 245 246 247 247 248 249 250 252 253 254 256 256 257 259 261 262 263 264 265 266 267 269 272 274 275 276 277 280 282 283 284 285 286 288 290 290 289 289 288 286 283 281 280 278 278 278 278 276 274 273 272 273 275 274 274 274 275 276 277 279 280 281 282 283 282 282 281 280 280 280 279 279 280 281 281 283 283
241 242 241 242 244 245 245 247 249 250 251 253 253 253 254 255 257 258 259 260 259 259 260 261 263 264 264 265 265 266 268 273 275 275 277 278 280 282 283 283 283 285 287 286 286 287 287 286 284 282 282 281 280 280 279 277 274 273 274 274 274 274 274 275 276 276 277 277 278 279 280 281 281 281 281 281 280 279 279 278 278 278 279 279 280 281
237 239 239 241 245 247 248 249 250 250 251 252 252 253 254 254 255 256 256 257 259 260 258 260 263 265 265 266 268 270 271 273 274 276 278 278 278 279 280 282 284 284 281 279 281 285 285 283 281 280 280 280 281 281 280 277 274 273 274 276 277 277 277 277 278 278 278 279 280 280 280 280 280 280 280 280 279 279 278 277 277 277 277 278 279 280
235 237 237 240 243 245 247 247 248 249 249 250 250 250 251 252 253 253 254 256 259 260 259 261 265 267 267 267 268 270 271 273 275 277 278 278 278 278 278 280 282 280 276 276 279 282 281 279 277 277 278 279 281 281 280 278 276 275 276 278 279 279 278 279 280 281 281 281 281 281 280 279 278 278 278 278 278 278 278 277 277 278 278 279 280 281
238 236 235 238 239 238 238 241 244 247 248 249 250 250 250 251 252 253 256 258 260 261 262 264 265 265 267 268 268 269 271 273 274 276 277 277 278 277 275 275 275 275 275 277 278 278 277 276 275 275 278 280 280 280 279 278 278 278 278 279 279 279 279 280 282 283 283 283 283 282 281 279 278 278 277 277 278 278 278 279 279 280 280 281 282 283
244 241 238 243 245 241 239 242 245 247 248 248 249 249 249 250 251 254 257 259 260 262 264 265 265 265 267 269 270 271 272 272 272 272 272 272 272 272 269 268 270 271 272 273 273 273 274 274 275 277 279 280 280 279 278 277 278 278 278 277 277 278 278 280 281 283 284 284 283 282 281 280 279 278 278 278 279 279 280 280 281 281 282 283 283 284
249 248 244 248 251 247 242 243 247 248 249 250 250 250 250 250 252 255 258 260 261 263 266 268 267 266 267 270 272 272 270 268 267 265 264 264 266 268 268 269 269 270 270 269 269 271 272 274 278 280 280 279 279 279 279 279 280 280 279 279 279 279 280 281 283 283 284 284 284 283 281 280 281 281 280 280 280 281 281 281 282 283 283 283 284 284
247 248 246 248 252 248 243 245 249 249 250 251 249 249 250 252 254 256 258 259 261 264 266 266 265 266 268 270 269 265 264 263 263 263 264 266 267 268 268 269 270 271 272 271 271 272 274 276 278 278 279 279 279 280 281 281 282 283 282 282 282 283 284 284 284 284 285 285 284 283 281 281 281 282 282 282 282 282 283 283 284 283 283 283 284 285
247 247 246 248 251 249 245 247 251 252 252 250 246 247 252 254 256 258 257 256 258 261 261 262 265 269 270 269 267 265 264 265 265 266 267 267 267 266 266 268 270 271 272 272 273 274 276 277 277 278 278 279 280 280 281 283 284 284 284 284 284 285 285 285 285 285 285 284 283 282 282 281 282 282 283 283 284 284 284 284 284 283 283 284 286 287
248 249 248 249 252 251 247 249 253 253 253 251 245 245 251 254 256 258 257 257 259 260 260 262 266 270 270 269 269 268 266 264 263 262 262 263 265 266 268 269 269 270 271 272 273 273 274 275 275 276 277 277 278 280 281 283 284 285 285 285 286 285 285 284 284 284 284 284 284 284 283 283 282 282 283 283 284 284 284 284 284 284 285 286 288 288
248 249 249 249 250 250 247 247 250 251 253 254 248 244 248 252 256 258 258 258 260 262 264 267 268 269 268 265 265 267 267 266 263 260 261 263 265 267 268 269 269 270 270 270 270 270 270 271 271 273 274 276 277 279 281 282 283 284 285 285 284 284 283 283 283 283 284 284 284 285 284 284 283 282 282 283 283 283 284 284 284 285 287 288 289 288
247 248 249 250 251 251 248 245 247 250 253 254 249 246 248 253 256 259 258 256 258 265 270 270 269 266 264 264 268 273 274 270 265 263 266 267 267 267 267 268 269 269 268 268 267 267 268 269 271 272 274 275 277 278 279 280 282 283 284 283 282 281 281 282 283 283 284 284 285 285 285 284 283 283 282 283 283 283 284 285 286 287 287 288 288 288
248 248 249 250 251 252 252 251 251 252 252 251 249 248 251 254 256 259 261 257 255 260 265 266 266 265 266 269 275 276 273 269 265 265 268 268 269 269 269 266 265 265 265 265 266 268 269 270 271 272 273 274 275 276 278 280 281 281 280 280 280 281 281 282 283 283 283 284 284 284 283 283 283 283 283 283 284 284 285 286 287 287 287 287 287 287
249 249 249 250 250 251 253 254 254 254 253 252 250 250 252 254 255 258 260 257 252 255 261 263 265 266 268 271 272 271 270 268 266 266 266 266 268 269 267 265 263 263 263 264 265 266 267 268 269 270 271 272 274 275 277 278 278 278 278 279 280 281 282 282 283 283 283 284 283 283 283 283 283 283 284 284 285 286 286 287 286 286 286 286 285 285
250 251 250 251 251 251 252 253 254 255 254 253 251 251 251 252 254 258 259 256 252 255 260 262 263 264 265 266 266 267 268 268 268 267 263 261 263 263 262 263 263 263 263 263 263 263 264 265 267 268 270 272 273 275 275 276 276 276 277 278 279 280 281 281 282 283 283 284 284 284 283 284 284 285 285 286 286 286 286 286 286 286 285 285 283 282
251 251 251 252 252 252 252 253 253 254 254 254 253 253 253 254 256 258 258 258 258 258 257 256 258 260 261 261 261 262 265 266 266 264 259 256 257 257 258 260 261 261 262 262 262 263 264 265 267 268 270 271 272 272 273 273 274 275 276 277 278 278 279 280 281 281 282 282 283 283 284 284 285 285 286 286 287 287 286 286 285 285 284 282 280 280
251 252 252 253 254 254 254 255 255 256 256 255 255 255 256 257 256 255 258 262 263 258 252 251 255 258 259 260 260 259 259 260 260 257 255 253 253 253 255 257 258 259 260 261 262 264 264 265 267 268 269 270 270 271 272 272 273 274 275 276 276 276 277 278 279 279 280 281 282 282 283 284 284 285 286 286 287 286 286 285 284 283 282 280 279 280
252 253 253 254 255 255 256 257 258 259 258 258 258 257 256 256 256 258 262 265 263 257 253 251 254 257 258 258 259 258 257 257 256 254 252 251 251 252 254 256 258 260 260 261 262 263 264 266 267 268 269 270 271 272 273 273 274 274 275 275 275 276 277 277 277 278 279 280 281 282 283 283 284 285 285 286 286 285 284 282 281 281 279 278 279 281
249 252 254 255 256 257 257 256 258 260 261 260 259 258 258 258 259 262 264 264 261 258 256 253 254 256 258 258 258 258 257 257 258 257 255 254 253 253 254 256 258 261 262 263 263 264 265 266 267 268 269 270 271 272 272 273 273 273 274 275 276 278 278 277 277 277 279 281 282 282 282 283 284 284 285 284 284 282 281 280 279 279 278 277 279 282
244 246 250 252 252 254 255 256 258 260 262 261 259 258 260 261 262 261 261 261 260 259 257 256 256 258 259 259 258 258 257 257 259 261 260 258 257 257 256 257 259 262 264 265 266 266 266 267 268 269 269 269 270 271 271 272 273 275 276 277 278 278 278 277 277 278 280 281 281 282 282 283 283 283 283 282 281 279 278 277 277 277 277 278 280 282
240 242 246 248 249 251 253 255 256 258 260 261 260 260 261 262 262 261 260 260 260 260 259 259 259 259 260 259 258 258 257 257 259 260 260 259 258 259 260 261 262 264 266 267 267 267 267 268 268 268 268 268 269 270 272 273 275 276 277 278 278 278 277 277 277 278 279 280 281 282 282 282 282 281 280 279 278 277 276 276 277 278 279 280 282 283
238 240 244 246 247 250 252 252 253 255 256 258 261 261 261 262 263 263 263 262 261 260 258 258 257 258 258 259 259 258 258 258 259 260 261 260 259 259 261 262 264 266 267 267 266 267 267 268 268 268 269 269 270 271 272 274 275 277 277 277 276 276 276 276 277 278 279 280 281 281 281 281 280 279 278 276 275 275 275 276 278 280 282 283 285 286
236 238 242 244 244 247 250 251 253 255 256 257 259 260 259 259 259 258 259 260 259 258 256 255 255 256 256 258 259 259 259 260 261 262 263 263 263 263 263 263 263 264 264 265 266 269 270 270 269 269 270 270 270 271 273 274 275 275 275 275 275 275 276 277 277 278 279 279 279 280 279 278 277 276 275 274 274 275 277 279 281 283 285 285 286 285
236 236 239 240 241 243 246 247 249 253 254 255 256 255 254 253 252 250 250 252 255 256 257 256 255 255 255 256 257 259 260 261 262 263 263 263 263 263 263 263 263 264 265 267 270 271 271 270 270 270 270 271 271 272 272 273 273 273 272 273 274 274 275 276 277 277 278 278 278 277 276 275 274 274 273 274 276 278 280 282 283 284 284 284 284 283
239 238 238 239 241 243 245 245 246 247 249 248 248 249 249 247 246 245 244 245 248 251 252 254 256 256 257 257 258 260 261 261 262 262 261 260 259 259 260 262 264 266 268 270 270 269 269 268 269 269 270 271 271 271 271 271 270 270 271 272 273 274 275 276 276 276 276 275 274 274 273 272 272 273 275 277 279 281 282 282 282 282 282 282 282 283
241 241 241 241 241 242 243 243 243 243 244 244 244 247 248 249 249 248 243 241 243 245 245 248 251 254 255 257 260 262 263 264 264 264 263 261 261 260 261 263 266 267 268 268 267 268 268 268 269 269 269 269 269 269 269 269 269 270 271 273 273 274 274 273 273 272 271 271 271 271 272 273 275 276 278 279 280 281 281 280 280 280 280 281 281 282
242 242 242 242 242 241 241 241 242 243 245 244 243 245 249 252 255 255 253 252 253 253 252 251 251 252 254 258 263 267 269 269 269 269 268 267 266 266 267 268 269 269 268 267 267 268 268 267 268 268 267 267 267 267 268 269 270 271 271 271 270 269 269 270 271 271 272 273 275 276 277 277 278 279 279 279 279 279 279 279 279 280 280 281 282 283
Height
5841 5842 5844 5846 5847 5847 5847 5849 5851 5854 5856 5858 5858 5859 5860 5861 5861 5861 5862 5863 5863 5864 5866 5866 5867 5869 5868 5867 5867 5868 5870 5871 5870 5870 5870 5869 5868 5868 5868 5868 5867 5867 5866 5864 5863 5862 5861 5861 5860 5859 5858 5857 5856 5855 5854 5853 5852 5851 5851 5850 5850 5849 5849 5848 5848 5848 5847 5847 5847 5846 5846 5845 5844 5844 5844 5844 5844 5843 5843 5842 5841 5841 5840 5840 5839 5838
5838 5839 5841 5843 5843 5844 5845 5847 5850 5852 5854 5855 5856 5856 5857 5858 5858 5858 5859 5860 5860 5861 5863 5863 5864 5866 5866 5866 5866 5866 5866 5868 5868 5867 5867 5866 5866 5865 5865 5865 5865 5864 5863 5862 5860 5859 5858 5857 5856 5856 5855 5854 5853 5852 5850 5849 5848 5848 5847 5847 5846 5845 5845 5845 5845 5844 5844 5844 5843 5843 5843 5842 5841 5841 5841 5841 5840 5840 5840 5839 5838 5837 5836 5836 5835 5834
5834 5836 5838 5839 5840 5841 5843 5846 5848 5849 5851 5852 5853 5854 5855 5856 5856 5856 5856 5857 5857 5858 5860 5860 5860 5863 5864 5864 5864 5864 5864 5865 5865 5864 5864 5864 5863 5863 5863 5863 5862 5861 5860 5859 5858 5856 5855 5854 5853 5852 5851 5850 5849 5848 5847 5846 5845 5844 5843 5843 5842 5842 5841 5841 5841 5841 5841 5841 5840 5839 5839 5839 5838 5838 5837 5837 5837 5836 5836 5835 5834 5833 5833 5832 5831 5831
5831 5833 5835 5836 5837 5838 5840 5843 5845 5846 5848 5849 5850 5851 5852 5853 5853 5852 5853 5854 5854 5855 5857 5857 5856 5859 5861 5861 5863 5862 5861 5862 5862 5861 5861 5860 5860 5860 5860 5860 5859 5858 5857 5856 5855 5853 5853 5851 5850 5848 5847 5846 5845 5845 5844 5843 5841 5841 5840 5839 5839 5838 5838 5837 5837 5837 5837 5836 5836 5836 5835 5835 5835 5834 5834 5833 5833 5832 5832 5831 5831 5830 5829 5828 5828 5827
5827 5829 5831 5833 5834 5836 5838 5840 5842 5843 5845 5845 5846 5848 5848 5849 5849 5849 5850 5851 5852 5852 5853 5854 5851 5854 5858 5859 5860 5860 5859 5860 5859 5858 5858 5857 5857 5858 5857 5857 5856 5855 5854 5853 5852 5850 5850 5848 5847 5845 5843 5842 5841 5841 5840 5839 5838 5837 5837 5836 5836 5835 5835 5834 5833 5833 5833 5833 5832 5832 5832 5832 5831 5831 5830 5830 5829 5828 5828 5828 5827 5827 5826 5825 5824 5823
5823 5826 5828 5830 5831 5833 5835 5837 5839 5840 5841 5842 5843 5844 5844 5845 5846 5847 5848 5848 5849 5849 5850 5850 5846 5847 5855 5857 5857 5858 5857 5857 5856 5855 5855 5854 5854 5854 5855 5854 5853 5852 5851 5850 5849 5847 5846 5845 5843 5842 5840 5839 5837 5837 5836 5835 5835 5834 5834 5833 5833 5832 5831 5831 5830 5829 5829 5829 5829 5829 5828 5828 5827 5827 5827 5826 5825 5824 5824 5824 5823 5823 5822 5821 5821 5820
5820 5823 5824 5826 5828 5830 5831 5833 5835 5835 5837 5838 5839 5839 5839 5841 5843 5844 5845 5845 5846 5846 5847 5847 5842 5840 5847 5854 5855 5855 5854 5854 5853 5852 5852 5851 5851 5851 5851 5851 5850 5849 5848 5847 5846 5844 5842 5841 5840 5838 5837 5836 5834 5833 5832 5832 5831 5831 5830 5830 5829 5829 5828 5828 5827 5826 5826 5826 5825 5825 5824 5824 5824 5823 5823 5822 5821 5820 5820 5819 5819 5818 5817 5817 5816 5816
5817 5819 5820 5823 5825 5826 5828 5829 5829 5830 5831 5833 5833 5834 5836 5838 5839 5840 5841 5842 5842 5843 5843 5843 5841 5836 5837 5848 5853 5851 5851 5851 5851 5850 5848 5848 5849 5848 5848 5847 5846 5845 5844 5843 5842 5840 5839 5837 5836 5835 5833 5832 5831 5830 5829 5829 5828 5827 5827 5826 5826 5825 5825 5824 5823 5822 5822 5822 5821 5821 5821 5820 5820 5819 5818 5818 5817 5817 5816 5815 5814 5814 5813 5812 5811 5811
5812 5813 5815 5818 5820 5821 5823 5823 5823 5825 5826 5828 5829 5830 5832 5834 5835 5836 5837 5837 5838 5840 5839 5839 5840 5835 5830 5839 5848 5848 5848 5849 5848 5847 5846 5845 5845 5844 5844 5843 5843 5842 5841 5840 5838 5837 5836 5834 5833 5831 5830 5829 5828 5827 5826 5826 5825 5824 5824 5823 5822 5822 5821 5820 5820 5819 5818 5818 5817 5817 5817 5817 5816 5815 5814 5813 5812 5812 5812 5811 5810 5810 5809 5808 5807 5806
5806 5808 5810 5812 5814 5817 5818 5818 5818 5820 5821 5824 5825 5827 5828 5829 5830 5831 5832 5833 5835 5836 5835 5835 5838 5835 5827 5830 5840 5842 5844 5846 5846 5845 5843 5842 5842 5841 5840 5840 5839 5839 5837 5836 5835 5833 5832 5831 5829 5828 5826 5825 5824 5823 5823 5822 5822 5821 5820 5820 5819 5818 5818 5817 5816 5815 5815 5814 5814 5813 5813 5812 5812 5811 5810 5809 5808 5808 5807 5807 5806 5805 5805 5804 5803 5802
5801 5802 5804 5807 5809 5812 5813 5813 5814 5816 5817 5820 5821 5822 5823 5823 5824 5826 5827 5830 5831 5830 5831 5832 5835 5836 5828 5824 5831 5837 5840 5842 5842 5841 5840 5839 5838 5837 5837 5836 5836 5835 5834 5832 5831 5830 5828 5827 5826 5824 5823 5821 5820 5820 5819 5818 5818 5817 5817 5816 5815 5815 5814 5813 5813 5812 5811 5811 5810 5809 5809 5808 5807 5807 5806 5805 5804 5804 5803 5802 5801 5801 5800 5800 5799 5798
5795 5797 5799 5802 5804 5806 5808 5809 5810 5812 5813 5814 5815 5816 5816 5817 5819 5821 5823 5825 5824 5825 5827 5828 5830 5833 5828 5822 5825 5831 5833 5836 5837 5836 5836 5834 5833 5832 5832 5832 5832 5831 5829 5828 5827 5826 5824 5823 5822 5821 5819 5818 5816 5816 5815 5814 5813 5813 5812 5812 5812 5811 5811 5810 5809 5808 5808 5807 5806 5805 5805 5804 5803 5802 5802 5801 5800 5800 5799 5798 5797 5796 5795 5795 5794 5793
5790 5792 5795 5797 5799 5801 5803 5804 5804 5806 5807 5808 5809 5810 5810 5812 5814 5816 5818 5818 5818 5821 5823 5824 5825 5826 5823 5821 5823 5825 5827 5830 5831 5831 5830 5828 5826 5826 5827 5827 5827 5826 5825 5823 5822 5821 5820 5819 5818 5817 5815 5814 5813 5811 5811 5810 5809 5808 5808 5808 5807 5807 5806 5806 5805 5804 5804 5803 5802 5801 5800 5800 5799 5798 5797 5797 5796 5795 5794 5793 5793 5791 5790 5789 5788 5787
5784 5786 5788 5791 5793 5796 5797 5797 5799 5801 5802 5803 5804 5806 5806 5807 5808 5809 5811 5811 5813 5817 5819 5819 5820 5819 5817 5819 5822 5823 5823 5825 5827 5827 5825 5823 5820 5818 5819 5821 5821 5820 5818 5818 5818 5816 5815 5815 5814 5812 5811 5809 5808 5807 5807 5806 5805 5804 5804 5804 5803 5802 5802 5801 5801 5800 5799 5799 5798 5797 5796 5796 5795 5794 5793 5792 5792 5791 5790 5789 5788 5787 5785 5784 5783 5781
5778 5780 5784 5786 5787 5790 5791 5793 5794 5796 5796 5796 5798 5799 5799 5802 5803 5804 5805 5806 5808 5811 5812 5813 5813 5813 5813 5815 5818 5819 5820 5821 5822 5823 5822 5819 5818 5813 5811 5813 5814 5813 5812 5812 5813 5812 5810 5810 5809 5808 5807 5805 5804 5803 5802 5802 5801 5800 5800 5799 5799 5798 5798 5797 5796 5795 5795 5794 5794 5793 5792 5791 5790 5789 5788 5787 5787 5786 5785 5784 5783 5782 5781 5779 5778 5776
5773 5775 5781 5782 5782 5785 5786 5787 5788 5789 5788 5790 5793 5792 5794 5799 5800 5798 5799 5801 5803 5803 5804 5807 5807 5809 5811 5811 5813 5815 5815 5816 5817 5819 5818 5817 5816 5813 5808 5806 5806 5806 5805 5806 5807 5807 5806 5805 5804 5803 5802 5801 5799 5799 5798 5797 5797 5796 5796 5795 5795 5794 5793 5792 5791 5790 5790 5789 5789 5788 5787 5786 5785 5784 5783 5783 5782 5781 5780 5779 5778 5777 5776 5774 5773 5771
5767 5770 5774 5775 5776 5778 5779 5780 5782 5782 5783 5785 5787 5788 5792 5795 5794 5792 5793 5795 5796 5793 5796 5800 5801 5806 5808 5806 5809 5812 5811 5811 5812 5812 5813 5813 5812 5811 5810 5806 5802 5799 5799 5800 5801 5801 5801 5800 5799 5798 5797 5796 5795 5794 5793 5792 5792 5792 5791 5790 5790 5789 5789 5788 5787 5786 5786 5785 5784 5783 5782 5781 5780 5779 5778 5778 5777 5776 5775 5774 5773 5772 5770 5769 5767 5766
5761 5763 5766 5768 5769 5771 5773 5773 5774 5776 5777 5779 5781 5784 5788 5787 5786 5787 5786 5787 5788 5785 5789 5795 5796 5801 5803 5801 5805 5809 5807 5806 5807 5806 5807 5807 5806 5806 5808 5807 5803 5797 5793 5794 5795 5794 5794 5795 5794 5794 5793 5791 5790 5789 5788 5787 5787 5787 5786 5786 5785 5784 5784 5783 5782 5782 5781 5780 5779 5778 5778 5777 5775 5774 5773 5773 5771 5770 5770 5769 5768 5766 5765 5764 5762 5761
5754 5755 5759 5761 5761 5763 5766 5766 5767 5770 5772 5773 5775 5778 5779 5777 5778 5781 5779 5779 5782 5780 5782 5788 5791 5793 5796 5797 5801 5804 5803 5802 5801 5801 5801 5801 5800 5801 5803 5803 5802 5798 5792 5790 5790 5789 5788 5789 5789 5789 5788 5786 5785 5784 5783 5783 5783 5782 5782 5781 5780 5779 5779 5778 5777 5777 5776 5775 5775 5774 5773 5772 5771 5770 5769 5768 5767 5765 5765 5764 5762 5761 5760 5758 5757 5755
5748 5747 5750 5753 5754 5756 5757 5759 5762 5765 5766 5766 5768 5770 5771 5772 5773 5774 5773 5773 5776 5774 5774 5780 5782 5784 5791 5795 5796 5797 5798 5797 5795 5796 5796 5795 5794 5795 5796 5796 5796 5795 5791 5786 5785 5785 5783 5783 5783 5783 5782 5780 5779 5778 5778 5778 5778 5778 5777 5777 5776 5775 5775 5774 5773 5772 5771 5771 5770 5769 5768 5767 5766 5765 5764 5763 5762 5761 5760 5758 5757 5756 5755 5753 5751 5750
5739 5740 5742 5745 5746 5746 5749 5754 5758 5760 5760 5759 5761 5763 5765 5767 5767 5766 5766 5767 5768 5767 5766 5769 5770 5777 5788 5792 5790 5790 5791 5791 5790 5790 5789 5789 5790 5790 5789 5787 5788 5789 5787 5783 5781 5780 5778 5777 5777 5777 5776 5774 5774 5773 5773 5773 5773 5773 5772 5772 5771 5771 5770 5770 5769 5768 5767 5766 5765 5764 5763 5762 5761 5760 5759 5758 5757 5756 5755 5753 5752 5750 5749 5748 5746 5744
5734 5735 5736 5737 5738 5741 5746 5751 5752 5752 5752 5752 5754 5756 5759 5761 5760 5758 5757 5759 5761 5759 5759 5760 5760 5770 5785 5788 5784 5784 5784 5785 5784 5783 5783 5784 5784 5784 5781 5780 5781 5782 5780 5778 5775 5774 5773 5772 5771 5771 5769 5768 5768 5767 5767 5768 5768 5768 5767 5767 5766 5766 5765 5765 5764 5763 5762 5761 5760 5759 5758 5757 5756 5755 5754 5753 5752 5751 5749 5748 5746 5745 5743 5742 5740 5739
5729 5729 5729 5730 5734 5737 5740 5743 5743 5743 5744 5745 5746 5750 5753 5752 5751 5749 5747 5751 5753 5750 5753 5753 5750 5763 5781 5783 5780 5780 5778 5777 5777 5778 5779 5778 5777 5777 5775 5774 5774 5773 5772 5771 5770 5768 5767 5766 5766 5765 5763 5761 5761 5761 5761 5762 5762 5762 5762 5761 5761 5760 5759 5759 5758 5757 5757 5756 5755 5754 5753 5752 5751 5750 5749 5747 5746 5745 5743 5742 5740 5739 5738 5736 5735 5733
5720 5719 5721 5725 5728 5729 5730 5733 5734 5735 5736 5736 5739 5743 5745 5744 5745 5743 5742 5745 5745 5743 5749 5748 5741 5756 5775 5776 5775 5775 5769 5767 5771 5773 5774 5772 5770 5769 5768 5768 5767 5764 5763 5763 5764 5763 5761 5761 5760 5759 5757 5755 5754 5754 5755 5755 5756 5756 5756 5756 5755 5754 5754 5753 5753 5752 5751 5750 5749 5748 5747 5746 5745 5744 5743 5741 5740 5739 5737 5736 5735 5733 5732 5730 5729 5727
5712 5711 5715 5717 5718 5719 5722 5725 5727 5729 5730 5731 5735 5738 5739 5740 5740 5738 5738 5740 5737 5739 5747 5741 5735 5750 5767 5768 5769 5768 5761 5760 5765 5766 5766 5766 5764 5761 5759 5761 5760 5757 5756 5756 5755 5756 5756 5755 5754 5752 5751 5749 5747 5749 5750 5750 5749 5749 5749 5749 5749 5749 5748 5747 5747 5746 5745 5744 5743 5742 5741 5740 5739 5738 5737 5735 5734 5733 5731 5730 5729 5727 5726 5724 5723 5721
5704 5704 5706 5707 5707 5710 5715 5720 5723 5726 5727 5727 5731 5734 5734 5736 5734 5733 5734 5731 5729 5737 5741 5732 5730 5746 5759 5759 5759 5760 5758 5757 5758 5758 5758 5759 5758 5755 5749 5749 5752 5751 5750 5747 5746 5748 5750 5750 5748 5746 5745 5743 5743 5744 5745 5744 5744 5743 5742 5742 5743 5743 5742 5741 5741 5740 5739 5738 5737 5736 5735 5734 5733 5731 5730 5729 5728 5726 5725 5724 5723 5721 5719 5718 5716 5715
5696 5696 5698 5699 5700 5705 5711 5716 5717 5719 5719 5719 5723 5726 5726 5726 5725 5724 5723 5719 5725 5732 5729 5725 5732 5741 5748 5751 5752 5753 5755 5753 5751 5750 5751 5750 5751 5749 5743 5740 5744 5745 5742 5739 5739 5741 5743 5743 5741 5740 5738 5738 5739 5739 5739 5738 5738 5737 5737 5737 5737 5737 5736 5735 5735 5734 5734 5733 5732 5730 5729 5727 5726 5724 5724 5723 5721 5720 5719 5717 5716 5715 5713 5711 5710 5709
5688 5690 5693 5695 5696 5701 5707 5709 5707 5707 5709 5711 5714 5716 5716 5716 5716 5713 5711 5715 5724 5722 5715 5725 5734 5731 5736 5746 5747 5747 5747 5746 5744 5744 5742 5740 5740 5743 5740 5736 5736 5735 5732 5732 5734 5735 5735 5734 5733 5733 5732 5733 5734 5734 5733 5732 5732 5732 5732 5732 5732 5731 5730 5729 5728 5728 5728 5727 5725 5724 5722 5721 5719 5718 5717 5716 5714 5713 5712 5711 5709 5708 5706 5705 5703 5702
5682 5684 5690 5691 5691 5696 5700 5701 5699 5700 5702 5704 5705 5706 5708 5708 5706 5705 5706 5713 5718 5709 5707 5724 5730 5721 5727 5738 5740 5741 5740 5738 5738 5737 5733 5731 5731 5734 5734 5729 5727 5725 5726 5727 5728 5727 5727 5725 5725 5726 5727 5728 5728 5728 5727 5726 5726 5727 5727 5727 5726 5725 5725 5723 5722 5721 5721 5720 5719 5717 5715 5714 5712 5711 5710 5709 5708 5707 5705 5704 5703 5701 5700 5698 5697 5695
5676 5680 5687 5686 5684 5689 5694 5694 5694 5694 5695 5696 5697 5698 5700 5700 5700 5701 5704 5709 5710 5703 5704 5716 5718 5714 5721 5729 5732 5734 5733 5730 5731 5729 5726 5725 5724 5724 5723 5720 5719 5719 5720 5721 5720 5719 5719 5717 5718 5720 5721 5722 5721 5720 5720 5720 5721 5722 5721 5720 5720 5719 5718 5717 5716 5715 5714 5713 5712 5710 5708 5706 5705 5704 5703 5702 5701 5700 5699 5698 5696 5695 5693 5691 5690 5688
5671 5674 5680 5678 5675 5680 5687 5689 5688 5687 5687 5687 5688 5690 5693 5694 5696 5697 5700 5703 5702 5698 5701 5707 5706 5707 5718 5723 5724 5726 5723 5721 5722 5720 5719 5718 5717 5716 5714 5712 5711 5712 5713 5714 5713 5712 5713 5712 5713 5715 5714 5713 5712 5712 5713 5714 5715 5715 5715 5714 5713 5712 5711 5711 5710 5709 5707 5706 5705 5703 5701 5700 5698 5698 5696 5696 5695 5694 5692 5691 5689 5688 5686 5685 5683 5681
5664 5666 5671 5670 5665 5669 5681 5685 5681 5680 5679 5676 5678 5684 5688 5691 5692 5693 5695 5697 5696 5694 5697 5697 5695 5702 5714 5717 5715 5716 5714 5712 5713 5712 5712 5713 5711 5709 5706 5705 5704 5704 5706 5706 5705 5706 5707 5708 5708 5708 5707 5706 5705 5705 5705 5706 5708 5708 5708 5707 5706 5705 5704 5703 5702 5701 5700 5699 5698 5696 5695 5693 5692 5691 5690 5689 5688 5687 5685 5684 5682 5681 5679 5677 5675 5673
5658 5659 5662 5661 5656 5663 5676 5678 5672 5670 5664 5662 5672 5684 5687 5687 5687 5685 5687 5690 5690 5689 5688 5686 5689 5698 5707 5707 5706 5707 5707 5706 5707 5707 5706 5705 5702 5700 5699 5699 5699 5698 5699 5700 5699 5700 5701 5701 5701 5700 5700 5699 5698 5698 5699 5699 5700 5700 5699 5699 5698 5698 5697 5696 5695 5694 5693 5692 5691 5690 5689 5687 5686 5685 5683 5682 5681 5679 5678 5677 5675 5673 5671 5669 5668 5666
5650 5651 5654 5654 5650 5655 5667 5669 5661 5653 5647 5655 5676 5686 5683 5679 5677 5675 5679 5684 5685 5682 5679 5680 5685 5693 5698 5699 5699 5700 5700 5699 5699 5699 5698 5697 5694 5693 5694 5694 5693 5692 5693 5695 5695 5695 5695 5694 5694 5693 5692 5692 5692 5692 5693 5692 5692 5692 5691 5692 5691 5690 5690 5689 5688 5687 5686 5685 5684 5683 5682 5681 5679 5678 5676 5675 5674 5672 5671 5669 5668 5666 5664 5662 5661 5659
5642 5644 5647 5647 5643 5647 5657 5657 5646 5636 5641 5658 5674 5677 5672 5671 5670 5670 5673 5677 5678 5675 5673 5676 5681 5687 5692 5693 5693 5692 5690 5689 5689 5690 5691 5691 5690 5689 5688 5687 5687 5686 5688 5689 5689 5688 5687 5687 5687 5686 5686 5686 5686 5686 5686 5685 5685 5684 5684 5684 5684 5683 5683 5682 5681 5681 5680 5679 5677 5676 5675 5673 5672 5671 5669 5668 5666 5665 5664 5662 5660 5659 5657 5655 5654 5652
5636 5637 5638 5638 5637 5639 5644 5641 5633 5632 5642 5653 5660 5665 5667 5667 5668 5666 5664 5669 5674 5671 5668 5671 5676 5681 5684 5685 5686 5684 5680 5678 5679 5682 5686 5686 5683 5682 5681 5681 5681 5680 5681 5681 5680 5680 5680 5679 5680 5680 5679 5680 5680 5679 5679 5678 5678 5678 5678 5677 5677 5676 5676 5675 5674 5674 5672 5671 5670 5668 5667 5665 5664 5663 5662 5660 5659 5658 5656 5655 5653 5651 5650 5648 5647 5645
5630 5629 5630 5630 5630 5631 5632 5630 5629 5632 5635 5640 5651 5662 5666 5664 5664 5660 5654 5659 5667 5666 5663 5666 5670 5674 5677 5678 5679 5675 5670 5667 5668 5676 5683 5679 5674 5674 5673 5674 5674 5673 5673 5674 5673 5673 5674 5673 5673 5673 5673 5673 5673 5672 5672 5672 5672 5672 5671 5670 5670 5669 5668 5668 5667 5666 5665 5664 5662 5661 5659 5658 5656 5655 5654 5653 5652 5651 5649 5647 5646 5644 5643 5641 5639 5638
5621 5621 5623 5623 5621 5624 5624 5623 5623 5622 5623 5633 5650 5661 5661 5657 5656 5652 5643 5645 5657 5664 5663 5662 5664 5668 5671 5671 5669 5664 5660 5657 5659 5671 5679 5672 5666 5667 5666 5665 5666 5666 5666 5667 5667 5667 5667 5666 5667 5666 5666 5666 5666 5665 5666 5665 5665 5665 5664 5663 5662 5661 5661 5660 5659 5658 5657 5656 5654 5653 5652 5650 5649 5648 5647 5646 5645 5643 5642 5640 5638 5637 5635 5633 5632 5631
5612 5612 5615 5614 5611 5615 5616 5613 5613 5612 5616 5631 5648 5655 5653 5648 5647 5642 5629 5630 5650 5666 5663 5657 5658 5661 5663 5662 5658 5655 5653 5650 5653 5665 5669 5662 5660 5661 5658 5656 5658 5658 5658 5659 5659 5659 5659 5659 5659 5659 5659 5659 5659 5659 5659 5658 5658 5657 5657 5656 5655 5654 5653 5652 5651 5650 5649 5648 5647 5645 5644 5643 5642 5641 5640 5638 5637 5635 5634 5632 5631 5629 5628 5626 5624 5623
5602 5603 5605 5602 5601 5606 5607 5603 5603 5605 5611 5627 5642 5646 5643 5640 5639 5629 5615 5622 5651 5665 5658 5652 5651 5651 5652 5652 5649 5647 5646 5645 5648 5655 5656 5654 5654 5653 5650 5649 5649 5649 5650 5650 5650 5651 5652 5652 5652 5652 5651 5652 5651 5651 5651 5651 5651 5650 5649 5649 5648 5647 5646 5644 5643 5643 5641 5640 5640 5638 5637 5636 5634 5633 5632 5630 5629 5628 5626 5625 5623 5621 5620 5618 5616 5615
5593 5594 5594 5593 5594 5598 5598 5595 5595 5598 5606 5622 5634 5638 5635 5631 5623 5611 5609 5628 5649 5654 5649 5647 5643 5641 5643 5643 5639 5638 5640 5639 5640 5643 5645 5646 5647 5645 5643 5642 5642 5642 5643 5643 5643 5644 5644 5644 5644 5644 5644 5644 5644 5644 5644 5643 5643 5643 5642 5641 5640 5639 5638 5637 5636 5635 5634 5633 5632 5630 5629 5628 5626 5625 5624 5622 5621 5619 5618 5616 5615 5613 5612 5610 5608 5607
5586 5586 5585 5585 5587 5589 5590 5590 5588 5589 5599 5616 5627 5628 5623 5613 5603 5604 5617 5631 5636 5637 5640 5639 5633 5631 5633 5632 5630 5632 5634 5634 5634 5635 5637 5638 5639 5638 5637 5635 5634 5634 5635 5635 5636 5636 5636 5636 5637 5636 5636 5636 5636 5636 5636 5636 5635 5635 5634 5633 5632 5632 5631 5630 5628 5627 5626 5625 5624 5623 5621 5620 5619 5617 5616 5614 5613 5611 5610 5608 5607 5605 5604 5602 5600 5599
5579 5579 5577 5579 5582 5583 5582 5582 5581 5583 5594 5609 5616 5614 5606 5599 5600 5609 5617 5619 5620 5624 5628 5627 5625 5623 5622 5622 5623 5624 5626 5628 5627 5627 5629 5630 5630 5631 5630 5629 5629 5628 5627 5628 5628 5629 5629 5629 5629 5629 5629 5629 5628 5628 5628 5627 5627 5626 5626 5625 5624 5623 5622 5622 5620 5619 5618 5617 5616 5614 5613 5612 5610 5609 5608 5606 5605 5603 5602 5600 5599 5597 5595 5594 5592 5591
5570 5571 5570 5573 5576 5575 5573 5574 5577 5581 5589 5598 5601 5599 5594 5592 5598 5604 5604 5604 5608 5612 5613 5615 5616 5615 5612 5612 5614 5615 5616 5619 5619 5619 5620 5621 5621 5623 5623 5623 5623 5621 5621 5621 5620 5621 5622 5621 5621 5621 5621 5621 5621 5620 5619 5619 5618 5618 5617 5616 5616 5615 5613 5613 5612 5610 5609 5608 5607 5606 5605 5603 5602 5601 5600 5598 5597 5595 5594 5592 5591 5589 5587 5586 5584 5582
5561 5565 5565 5565 5568 5568 5566 5568 5572 5576 5582 5586 5588 5588 5586 5584 5588 5593 5593 5595 5598 5599 5601 5603 5604 5603 5602 5602 5603 5605 5607 5608 5609 5609 5611 5611 5613 5614 5615 5615 5616 5615 5615 5614 5613 5614 5614 5613 5613 5613 5612 5612 5612 5612 5611 5611 5610 5609 5608 5608 5607 5606 5605 5603 5602 5601 5600 5599 5598 5597 5596 5595 5594 5593 5592 5591 5589 5587 5586 5584 5583 5581 5579 5578 5576 5574
5555 5559 5558 5557 5560 5561 5559 5562 5567 5570 5574 5578 5579 5578 5577 5577 5580 5583 5585 5585 5585 5586 5588 5589 5591 5592 5591 5591 5593 5596 5597 5598 5599 5600 5601 5602 5603 5604 5605 5606 5607 5608 5607 5606 5605 5605 5605 5605 5605 5605 5604 5604 5604 5603 5603 5602 5601 5601 5600 5599 5598 5597 5595 5594 5593 5592 5591 5590 5589 5588 5587 5587 5586 5584 5583 5582 5581 5579 5578 5576 5574 5572 5571 5569 5568 5566
5547 5548 5546 5547 5550 5550 5550 5556 5563 5564 5566 5570 5571 5569 5569 5570 5572 5574 5574 5573 5572 5573 5575 5577 5579 5580 5580 5580 5583 5585 5586 5588 5590 5591 5592 5594 5594 5595 5596 5597 5598 5599 5599 5598 5598 5597 5597 5596 5596 5596 5596 5596 5595 5595 5594 5593 5593 5592 5590 5589 5588 5587 5586 5585 5584 5583 5582 5582 5581 5580 5579 5578 5577 5576 5575 5573 5572 5571 5569 5568 5566 5564 5563 5561 5559 5557
5535 5536 5534 5536 5539 5539 5542 5550 5557 5556 5556 5561 5562 5561 5561 5562 5562 5562 5563 5562 5563 5564 5566 5568 5568 5569 5570 5572 5573 5574 5576 5578 5579 5581 5583 5585 5585 5587 5587 5587 5588 5589 5589 5589 5589 5589 5588 5587 5587 5586 5586 5586 5585 5585 5585 5584 5583 5582 5581 5581 5580 5579 5578 5577 5576 5575 5574 5573 5572 5571 5570 5569 5568 5567 5566 5565 5563 5562 5561 5559 5558 5556 5555 5553 5551 5549
5524 5524 5525 5528 5530 5531 5534 5542 5547 5546 5545 5550 5553 5553 5554 5553 5551 5552 5554 5555 5557 5558 5559 5559 5560 5560 5562 5564 5564 5565 5567 5569 5570 5571 5572 5574 5575 5577 5577 5577 5578 5579 5579 5580 5580 5580 5579 5579 5578 5577 5576 5576 5576 5575 5575 5575 5574 5573 5573 5572 5571 5570 5569 5568 5567 5566 5565 5564 5563 5562 5561 5561 5560 5558 5557 5556 5555 5554 5553 5551 5550 5548 5546 5545 5543 5541
5512 5514 5518 5521 5520 5521 5526 5533 5536 5534 5533 5540 5546 5546 5544 5542 5541 5543 5546 5548 5549 5550 5550 5551 5552 5554 5555 5556 5557 5557 5559 5561 5562 5562 5563 5565 5566 5567 5567 5568 5569 5569 5570 5570 5570 5570 5570 5569 5568 5568 5567 5567 5567 5566 5566 5565 5565 5565 5564 5563 5563 5562 5561 5559 5559 5558 5557 5556 5555 5554 5553 5552 5551 5550 5549 5548 5547 5546 5545 5543 5542 5540 5538 5536 5534 5532
5503 5505 5510 5510 5508 5512 5519 5525 5527 5524 5524 5532 5540 5538 5535 5535 5534 5535 5538 5539 5540 5541 5542 5542 5544 5546 5548 5548 5549 5550 5551 5553 5554 5555 5556 5557 5557 5558 5559 5560 5560 5560 5560 5560 5560 5560 5560 5559 5559 5559 5558 5558 5558 5558 5557 5557 5557 5556 5556 5555 5554 5553 5552 5551 5550 5549 5548 5548 5547 5546 5545 5544 5543 5542 5541 5540 5539 5538 5536 5535 5533 5531 5529 5527 5525 5523